| time (UTC) | temp C | wind direction | speed KPH | gust KPH | rain 1hr cm | rain 24hr cm | rain mn cm | humidity % | barometer mb |
| 20260505003016 | 11 | 0.0 | 0.0 | 0.00 | 0.00 | 0.00 | 90 | 1011.6 | |
| 20260505000018 | 11 | 0.0 | 0.0 | 0.00 | 0.00 | 0.00 | 91 | 1011.8 | |
| 20260504233016 | 11 | 0.0 | 0.0 | 0.00 | 0.00 | 0.00 | 90 | 1011.8 | |
| 20260504230016 | 11 | 0.0 | 0.0 | 0.00 | 0.00 | 0.00 | 88 | 1012.0 | |
| 20260504223016 | 12 | 0.0 | 0.0 | 0.00 | 0.00 | 0.00 | 87 | 1012.4 | |
| 20260504220015 | 12 | 0.0 | 0.0 | 0.00 | 0.00 | 0.00 | 87 | 1012.6 | |
| 20260504213018 | 13 | 0.0 | 0.0 | 0.00 | 0.00 | 0.00 | 85 | 1013.1 | |
| 20260504210017 | 13 | 0.0 | 0.0 | 0.00 | 0.00 | 0.00 | 85 | 1013.2 | |
| 20260504203017 | 13 | 0.0 | 0.0 | 0.00 | 0.00 | 0.00 | 85 | 1013.2 | |
| 20260504200016 | 13 | 0.0 | 0.0 | 0.00 | 0.00 | 0.00 | 83 | 1013.5 | |
| 20260504193016 | 13 | 0.0 | 3.2 | 0.00 | 0.00 | 0.00 | 82 | 1013.2 | |
| 20260504190016 | 14 | 0.0 | 3.2 | 0.00 | 0.00 | 0.00 | 81 | 1013.0 | |
| 20260504183016 | 14 | 0.0 | 3.2 | 0.00 | 0.00 | 0.00 | 78 | 1012.5 | |
| 20260504180016 | 15 | 0 | 1.6 | 6.4 | 0.00 | 0.00 | 0.00 | 72 | 1012.4 |
| 20260504173017 | 15 | 248 | 1.6 | 4.8 | 0.00 | 0.00 | 0.00 | 71 | 1012.8 |
| 20260504050017 | 7 | 0.0 | 3.2 | 0.00 | 0.00 | 0.00 | 90 | 1013.5 | |
| 20260504043016 | 6 | 0.0 | 0.0 | 0.00 | 0.00 | 0.00 | 92 | 1013.6 | |
| 20260504040016 | 6 | 0.0 | 0.0 | 0.00 | 0.00 | 0.00 | 92 | 1013.5 | |
| 20260504033016 | 6 | 0.0 | 0.0 | 0.00 | 0.00 | 0.00 | 92 | 1013.8 | |
| 20260504030016 | 6 | 0.0 | 1.6 | 0.00 | 0.00 | 0.00 | 90 | 1014.1 | |
| 20260504023016 | 6 | 0.0 | 1.6 | 0.00 | 0.00 | 0.00 | 90 | 1013.8 | |
| 20260504020016 | 7 | 0.0 | 0.0 | 0.00 | 0.00 | 0.00 | 90 | 1013.8 | |
| 20260504013016 | 7 | 0.0 | 0.0 | 0.00 | 0.00 | 0.00 | 88 | 1014.0 | |
| 20260504010016 | 7 | 0.0 | 0.0 | 0.00 | 0.00 | 0.00 | 87 | 1014.0 |